This is the latest recevied weather packets stored in our database for station/object N8HON. If no packets are shown the sender has not sent any weather packets the latest 10 day(s).
| Time | Temp. | Humidity | Pressure | Rain* | Wind** | Luminosity | Snow |
|---|---|---|---|---|---|---|---|
| 1777418870 | 19.44° C | 62% | 1012.7 hPa | 0 mm | - | 19 W/m² | - |
| 1777418566 | 19.44° C | 62% | 1013 hPa | 0 mm | - | 19 W/m² | - |
| 1777418263 | 20° C | 59% | 1012.6 hPa | 0 mm | - | 22 W/m² | - |
| 1777417958 | 20° C | 63% | 1013 hPa | 0 mm | - | 25 W/m² | - |
| 1777417655 | 20.56° C | 60% | 1012.8 hPa | 0 mm | - | 26 W/m² | - |
| 1777417350 | 20° C | 59% | 1012.9 hPa | 0 mm | - | 27 W/m² | - |
| 1777417047 | 19.44° C | 62% | 1013.3 hPa | 0 mm | - | 30 W/m² | - |
| 1777416742 | 19.44° C | 65% | 1013.4 hPa | 0 mm | - | 42 W/m² | - |
| 1777416438 | 20° C | 62% | 1013.6 hPa | 0 mm | - | 37 W/m² | - |
| 1777416134 | 20° C | 62% | 1013.9 hPa | 0 mm | - | 36 W/m² | - |
| 1777415828 | 20° C | 63% | 1013.4 hPa | 0 mm | - | 37 W/m² | - |
| 1777415524 | 20° C | 60% | 1013.7 hPa | 0 mm | - | 38 W/m² | - |
| 1777415220 | 20° C | 62% | 1013.9 hPa | 0 mm | - | 39 W/m² | - |
| 1777414915 | 20° C | 63% | 1013.9 hPa | 0 mm | - | 41 W/m² | - |
| 1777414615 | 20.56° C | 61% | 1013.9 hPa | 0 mm | - | 42 W/m² | - |
| 1777414310 | 20.56° C | 63% | 1013.8 hPa | 0 mm | - | 55 W/m² | - |
| 1777414004 | 20.56° C | 60% | 1013.7 hPa | 0 mm | - | 58 W/m² | - |
| 1777413700 | 20.56° C | 63% | 1013.7 hPa | 0 mm | - | 86 W/m² | - |
| 1777413396 | 21.67° C | 59% | 1013.6 hPa | 0 mm | - | 53 W/m² | - |
| 1777413092 | 21.67° C | 56% | 1013.4 hPa | 0 mm | - | 116 W/m² | - |
| 1777412787 | 22.22° C | 55% | 1013.4 hPa | 0 mm | - | 93 W/m² | - |
| 1777412487 | 22.22° C | 56% | 1013.4 hPa | 0 mm | - | 342 W/m² | - |
| 1777412184 | 22.78° C | 55% | 1013.3 hPa | 0 mm | - | 67 W/m² | - |
| 1777411880 | 23.33° C | 56% | 1013.7 hPa | 0 mm | - | 216 W/m² | - |
| 1777411579 | 22.78° C | 53% | 1013.2 hPa | 0 mm | - | 404 W/m² | - |
* Rain latest hour (hover to see other rain measurements)
** Current wind speed in m/s (hover to see current wind gust speed)